Date String (YYYY-MM-DD hh:mm:ss) UTC,Instrument flags,Ambient pressure (hPa),Sample flow (lpm),Bypass flow (lpm),Sample temperature (°C),Ambient temperature (°C),ASC tube jacket temperature (°C),LED temperature (°C),Box temperature (°C),Sample RH (%),Span deviation,Mass concentration (μg/m³),Mass concentration (μg/m³),Mass concentration (μg/m³)
DateTimeUTC,F1_M11,P_M11,Q1_M11,Q2_M11,T1_M11,T2_M11,T3_M11,T4_M11,T5_M11,U1_M11,ZSPAN_M11,X0_M11,X2_M11,X1_M11
2022-03-03 22:00:00,,0824.1,5.00,0.00,30.1,28.9,00.0,39.0,31.9,08.9,-001.5,0015.62,0008.01,0007.25
2022-03-03 22:01:00,,0824.1,5.00,0.00,30.2,29.0,00.0,39.1,31.9,09.0,-001.4,0015.54,0008.06,0007.28
2022-03-03 22:02:00,,0824.1,5.00,0.00,30.2,29.2,00.0,39.1,32.0,09.1,-001.3,0015.96,0008.10,0007.30
2022-03-03 22:03:00,,0824.1,5.00,0.00,30.2,29.2,00.0,39.1,32.0,09.6,-000.9,0017.21,0008.13,0007.33
2022-03-03 22:04:00,,0824.0,5.00,0.00,30.3,29.3,00.0,39.1,32.1,09.6,-000.8,0018.08,0008.22,0007.39
2022-03-03 22:05:00,,0824.1,5.00,0.00,30.3,29.4,00.0,39.1,32.1,09.3,-001.0,0019.28,0008.35,0007.51
2022-03-03 22:06:00,,0824.0,4.99,0.00,30.3,29.4,00.0,39.1,32.1,09.3,-001.7,0020.26,0008.50,0007.61
2022-03-03 22:07:00,,0824.0,5.02,0.00,30.3,29.5,00.0,39.2,32.1,09.1,-002.0,0020.17,0008.57,0007.69
2022-03-03 22:08:00,,0824.0,4.99,0.00,30.3,29.5,00.0,39.2,32.1,09.1,-002.4,0019.44,0008.56,0007.75
2022-03-03 22:09:00,,0823.9,5.01,0.00,30.4,29.5,00.0,39.2,32.1,09.1,-002.3,0018.74,0008.61,0007.83
2022-03-03 22:10:00,,0823.9,5.00,0.00,30.4,29.6,00.0,39.2,32.2,08.9,-002.2,0019.22,0008.70,0007.91
2022-03-03 22:11:00,,0823.9,5.00,0.00,30.4,29.6,00.0,39.2,32.3,08.8,-001.9,0019.40,0008.82,0007.97
2022-03-03 22:12:00,,0823.8,5.01,0.00,30.5,29.6,00.0,39.3,32.3,08.8,-001.9,0019.21,0008.92,0008.07
2022-03-03 22:13:00,,0823.9,5.00,0.00,30.4,27.9,00.0,39.3,31.8,09.0,-001.8,0019.21,0009.00,0008.16
2022-03-03 22:14:00,,0823.8,5.01,0.00,30.2,26.1,00.0,39.2,31.3,09.1,-002.0,0018.17,0009.09,0008.27
2022-03-03 22:15:00,,0823.8,4.99,0.00,30.1,26.0,00.0,39.2,31.3,09.2,-002.2,0017.19,0009.14,0008.33
2022-03-03 22:16:00,,0823.8,5.00,0.00,30.0,26.5,00.0,39.1,31.3,09.2,-002.1,0016.70,0009.12,0008.34
2022-03-03 22:17:00,,0823.7,5.01,0.00,29.9,27.0,00.0,39.1,31.4,09.2,-001.5,0016.03,0009.08,0008.35
2022-03-03 22:18:00,,0823.8,4.99,0.00,29.9,27.4,00.0,39.0,31.5,09.2,-000.9,0015.99,0009.09,0008.36
2022-03-03 22:19:00,,0823.8,5.00,0.00,29.9,27.8,00.0,39.0,31.6,09.4,-000.4,0016.42,0009.15,0008.39
2022-03-03 22:20:00,,0823.8,5.00,0.00,29.9,28.1,00.0,39.0,31.6,09.4,-000.6,0016.54,0009.21,0008.44
2022-03-03 22:21:00,,0823.8,5.01,0.00,30.0,28.3,00.0,39.0,31.7,09.3,-000.4,0016.20,0009.27,0008.50
2022-03-03 22:22:00,,0823.8,4.99,0.00,30.0,28.5,00.0,39.0,31.7,09.1,-000.9,0015.85,0009.32,0008.56
2022-03-03 22:23:00,,0823.8,5.00,0.00,30.0,28.7,00.0,39.0,31.8,09.1,-000.9,0015.84,0009.33,0008.59
2022-03-03 22:24:00,,0823.8,5.00,0.00,30.0,28.8,00.0,39.0,31.8,09.2,-000.8,0016.41,0009.35,0008.62
2022-03-03 22:25:00,,0823.8,5.00,0.00,30.1,28.9,00.0,39.0,31.9,09.1,-000.7,0016.94,0009.38,0008.67
2022-03-03 22:26:00,,0823.8,5.01,0.00,30.1,29.0,00.0,39.0,31.9,09.0,-000.6,0017.12,0009.47,0008.73
2022-03-03 22:27:00,,0823.8,5.00,0.00,30.1,29.1,00.0,39.0,31.9,09.0,-000.1,0016.54,0009.53,0008.80
2022-03-03 22:28:00,,0823.8,5.00,0.00,30.2,29.2,00.0,39.0,31.9,08.9,-000.3,0016.62,0009.62,0008.88
2022-03-03 22:29:00,,0823.8,5.02,0.00,30.2,29.2,00.0,39.0,32.0,09.0,-000.3,0016.73,0009.69,0008.95
2022-03-03 22:30:00,,0823.8,4.98,0.00,30.2,29.3,00.0,39.1,32.0,09.1,-000.7,0017.42,0009.71,0008.98
2022-03-03 22:31:00,,0823.8,5.01,0.00,30.2,29.4,00.0,39.1,32.0,09.0,-000.6,0017.37,0009.74,0008.98
2022-03-03 22:32:00,,0823.8,5.00,0.00,30.3,29.4,00.0,39.1,32.1,08.8,-000.6,0018.33,0009.73,0008.98
2022-03-03 22:33:00,,0823.8,5.01,0.00,30.3,29.5,00.0,39.1,32.1,08.7,-000.2,0019.61,0009.71,0008.96
2022-03-03 22:34:00,,0823.8,5.00,0.00,30.4,29.5,00.0,39.2,32.2,09.0,-000.3,0019.76,0009.67,0008.92
2022-03-03 22:35:00,,0823.8,5.00,0.00,30.4,29.6,00.0,39.2,32.2,08.9,-000.3,0019.38,0009.67,0008.92
2022-03-03 22:36:00,,0823.8,5.01,0.00,30.4,29.6,00.0,39.2,32.2,08.6,0000.0,0018.80,0009.72,0008.94
2022-03-03 22:37:00,,0823.7,5.00,0.00,30.4,29.0,00.0,39.2,32.1,08.6,0000.3,0018.70,0009.69,0008.95
2022-03-03 22:38:00,,0823.7,4.99,0.00,30.3,26.8,00.0,39.2,31.5,08.7,0000.2,0018.58,0009.69,0008.97
2022-03-03 22:39:00,,0823.7,5.01,0.00,30.1,25.8,00.0,39.2,31.2,08.9,-000.2,0018.63,0009.70,0008.97
2022-03-03 22:40:00,,0823.6,4.99,0.00,30.0,26.1,00.0,39.1,31.3,08.7,-000.7,0019.26,0009.73,0009.00
2022-03-03 22:41:00,,0823.7,4.99,0.00,29.9,26.6,00.0,39.0,31.3,08.9,-000.3,0018.38,0009.80,0009.03
2022-03-03 22:42:00,,0823.6,4.99,0.00,29.9,27.2,00.0,39.0,31.4,08.8,0000.1,0018.35,0009.85,0009.07
2022-03-03 22:43:00,,0823.7,5.01,0.00,29.9,27.6,00.0,39.0,31.5,08.7,-000.4,0017.80,0009.89,0009.12
2022-03-03 22:44:00,,0823.6,4.99,0.00,29.9,27.9,00.0,38.9,31.6,08.7,-000.2,0016.62,0009.96,0009.18
2022-03-03 22:45:00,,0823.7,5.00,0.00,29.9,28.2,00.0,38.9,31.6,08.5,0000.3,0017.75,0010.00,0009.24
2022-03-03 22:46:00,,0823.6,5.01,0.00,29.9,28.4,00.0,38.9,31.7,08.5,0000.2,0017.95,0010.06,0009.27
2022-03-03 22:47:00,,0823.7,4.98,0.00,30.0,28.6,00.0,38.9,31.7,08.5,0000.8,0017.97,0010.09,0009.27
2022-03-03 22:48:00,,0823.6,5.00,0.00,30.0,28.7,00.0,38.9,31.8,08.5,0000.8,0018.01,0010.09,0009.27
2022-03-03 22:49:00,,0823.7,5.01,0.00,30.0,28.9,00.0,38.9,31.8,08.7,0000.5,0018.04,0010.09,0009.26
2022-03-03 22:50:00,,0823.7,4.99,0.00,30.1,29.0,00.0,38.9,31.9,08.7,0000.6,0017.92,0010.08,0009.22
2022-03-03 22:51:00,,0823.7,5.00,0.00,30.1,29.1,00.0,39.0,31.9,08.7,0001.4,0017.36,0010.06,0009.21
2022-03-03 22:52:00,,0823.7,4.99,0.00,30.1,29.2,00.0,39.0,32.0,08.7,0001.5,0017.50,0010.03,0009.18
2022-03-03 22:53:00,,0823.6,5.02,0.00,30.2,29.2,00.0,39.0,32.0,08.7,0001.9,0017.54,0010.02,0009.18
2022-03-03 22:54:00,,0823.6,5.00,0.00,30.2,29.3,00.0,39.0,32.0,08.5,0002.6,0017.64,0010.03,0009.19
2022-03-03 22:55:00,,0823.6,4.98,0.00,30.2,29.3,00.0,39.0,32.0,08.5,0002.4,0018.19,0010.01,0009.17
2022-03-03 22:56:00,,0823.6,5.01,0.00,30.3,29.4,00.0,39.1,32.1,08.7,0001.8,0017.20,0009.98,0009.14
2022-03-03 22:57:00,,0823.6,4.99,0.00,30.3,29.5,00.0,39.1,32.1,08.5,0001.5,0016.96,0009.97,0009.15
2022-03-03 22:58:00,,0823.5,4.99,0.00,30.3,29.5,00.0,39.1,32.2,08.4,0000.3,0018.26,0009.95,0009.17
2022-03-03 22:59:00,,0823.5,5.00,0.00,30.4,29.6,00.0,39.1,32.2,08.3,0000.3,0017.91,0009.91,0009.16
